When you browse on this site, cookies collect data to enhance your experience and personalize the content and advertising you see.
Visit our Privacy Policy to learn more. By continuing to use the site, you agree to this use of cookies and data.

Hourly Weather Przylek

Today, 13 July, Monday

Time Temperature Precipitation Wind Pressure Humidity
00:00 +12°C° 0 mm 2 mps 746 mmHg 86%
01:00 +11°C° 0 mm 1 mps 746 mmHg 86%
02:00 +10°C° 0 mm 2 mps 746 mmHg 87%
03:00 +10°C° 0 mm 2 mps 746 mmHg 88%
04:00 +9°C° 0 mm 2 mps 746 mmHg 88%
05:00 +12°C° 0 mm 2 mps 746 mmHg 84%
06:00 +13°C° 0 mm 2 mps 746 mmHg 80%
07:00 +15°C° 0 mm 2 mps 746 mmHg 75%
08:00 +16°C° 0 mm 3 mps 746 mmHg 70%
09:00 +17°C° 0 mm 3 mps 745 mmHg 65%
10:00 +18°C° 0 mm 4 mps 745 mmHg 60%
11:00 +19°C° 0.1 mm 4 mps 745 mmHg 60%
12:00 +19°C° 0.1 mm 4 mps 745 mmHg 60%
13:00 +20°C° 0.1 mm 4 mps 745 mmHg 60%
14:00 +19°C° 0.1 mm 4 mps 744 mmHg 63%
15:00 +19°C° 0.1 mm 3 mps 744 mmHg 65%
16:00 +19°C° 0.1 mm 3 mps 743 mmHg 68%
17:00 +18°C° 0 mm 3 mps 743 mmHg 72%
18:00 +17°C° 0 mm 2 mps 743 mmHg 76%
19:00 +16°C° 0 mm 2 mps 743 mmHg 80%
20:00 +15°C° 0 mm 2 mps 743 mmHg 83%
21:00 +14°C° 0 mm 1 mps 743 mmHg 86%
22:00 +13°C° 0 mm 1 mps 743 mmHg 89%
23:00 +13°C° 0 mm 1 mps 743 mmHg 90%

Tomorrow, 14 July, Tuesday

Time Temperature Precipitation Wind Pressure Humidity
00:00 +13°C° 0 mm 1 mps 743 mmHg 91%
01:00 +12°C° 0 mm 1 mps 743 mmHg 91%
02:00 +12°C° 0 mm 1 mps 743 mmHg 92%
03:00 +12°C° 0 mm 1 mps 742 mmHg 92%
04:00 +12°C° 0 mm 1 mps 742 mmHg 93%
05:00 +13°C° 0 mm 1 mps 742 mmHg 88%
06:00 +15°C° 0 mm 1 mps 742 mmHg 83%
07:00 +18°C° 0 mm 1 mps 743 mmHg 78%
08:00 +19°C° 0 mm 1 mps 742 mmHg 73%
09:00 +20°C° 0 mm 1 mps 742 mmHg 67%
10:00 +22°C° 0 mm 1 mps 742 mmHg 62%
11:00 +23°C° 0.2 mm 1 mps 742 mmHg 59%
12:00 +23°C° 0.2 mm 1 mps 741 mmHg 57%
13:00 +22°C° 0.2 mm 0 mps 741 mmHg 55%
14:00 +24°C° 0.2 mm 1 mps 741 mmHg 55%
15:00 +23°C° 0.2 mm 1 mps 740 mmHg 56%
16:00 +23°C° 0.2 mm 1 mps 740 mmHg 56%
17:00 +22°C° 0.1 mm 1 mps 740 mmHg 63%
18:00 +21°C° 0.1 mm 1 mps 740 mmHg 69%
19:00 +19°C° 0.1 mm 2 mps 740 mmHg 76%
20:00 +18°C° 0 mm 2 mps 740 mmHg 78%
21:00 +17°C° 0 mm 2 mps 740 mmHg 81%
22:00 +16°C° 0 mm 2 mps 740 mmHg 84%
23:00 +15°C° 0 mm 2 mps 740 mmHg 85%

Day after tomorrow, 15 July, Wednesday

Time Temperature Precipitation Wind Pressure Humidity
00:00 +15°C° 0 mm 2 mps 740 mmHg 87%
01:00 +14°C° 0 mm 2 mps 740 mmHg 89%
02:00 +14°C° 0 mm 2 mps 739 mmHg 89%
03:00 +14°C° 0 mm 2 mps 739 mmHg 89%
04:00 +14°C° 0 mm 2 mps 739 mmHg 89%
05:00 +15°C° 0 mm 2 mps 739 mmHg 84%
06:00 +17°C° 0 mm 2 mps 739 mmHg 79%
07:00 +19°C° 0 mm 2 mps 739 mmHg 74%
08:00 +20°C° 0.2 mm 2 mps 739 mmHg 67%
09:00 +23°C° 0.2 mm 2 mps 739 mmHg 61%
10:00 +24°C° 0.2 mm 2 mps 738 mmHg 54%
11:00 +24°C° 0 mm 2 mps 738 mmHg 53%
12:00 +25°C° 0 mm 2 mps 738 mmHg 52%
13:00 +25°C° 0 mm 3 mps 738 mmHg 51%
14:00 +25°C° 0 mm 2 mps 737 mmHg 51%
15:00 +25°C° 0 mm 2 mps 737 mmHg 52%
16:00 +25°C° 0 mm 2 mps 737 mmHg 53%
17:00 +24°C° 0.1 mm 2 mps 737 mmHg 59%
18:00 +21°C° 0.1 mm 2 mps 737 mmHg 65%
19:00 +20°C° 0.1 mm 2 mps 737 mmHg 71%
20:00 +19°C° 0.1 mm 2 mps 737 mmHg 73%
21:00 +18°C° 0.1 mm 2 mps 737 mmHg 76%
22:00 +18°C° 0.1 mm 2 mps 737 mmHg 78%
23:00 +17°C° 0 mm 2 mps 737 mmHg 80%

16 July, Thursday

Time Temperature Precipitation Wind Pressure Humidity
00:00 +17°C° 0 mm 2 mps 737 mmHg 81%
01:00 +17°C° 0 mm 3 mps 737 mmHg 83%
02:00 +17°C° 0.1 mm 2 mps 737 mmHg 86%
03:00 +16°C° 0.1 mm 2 mps 736 mmHg 89%
04:00 +16°C° 0.1 mm 2 mps 736 mmHg 92%
05:00 +16°C° 0.6 mm 2 mps 736 mmHg 93%
06:00 +16°C° 0.6 mm 2 mps 737 mmHg 94%
07:00 +16°C° 0.6 mm 2 mps 737 mmHg 95%
08:00 +16°C° 1.2 mm 3 mps 737 mmHg 94%
09:00 +14°C° 1.2 mm 3 mps 737 mmHg 94%
10:00 +14°C° 1.2 mm 4 mps 737 mmHg 93%
11:00 +15°C° 0.1 mm 4 mps 738 mmHg 89%
12:00 +17°C° 0.1 mm 4 mps 738 mmHg 84%
13:00 +17°C° 0.1 mm 4 mps 738 mmHg 80%
14:00 +18°C° 0.2 mm 4 mps 738 mmHg 79%
15:00 +18°C° 0.2 mm 4 mps 738 mmHg 79%
16:00 +18°C° 0.2 mm 4 mps 738 mmHg 78%
17:00 +17°C° 0.1 mm 4 mps 738 mmHg 81%
18:00 +16°C° 0.1 mm 3 mps 738 mmHg 84%
19:00 +14°C° 0.1 mm 3 mps 738 mmHg 86%
20:00 +13°C° 0 mm 3 mps 738 mmHg 89%
21:00 +13°C° 0 mm 2 mps 738 mmHg 92%
22:00 +12°C° 0 mm 2 mps 738 mmHg 95%
23:00 +12°C° 0 mm 2 mps 738 mmHg 95%

17 July, Friday

Time Temperature Precipitation Wind Pressure Humidity
00:00 +12°C° 0 mm 2 mps 738 mmHg 96%
01:00 +10°C° 0 mm 2 mps 738 mmHg 96%
02:00 +10°C° 0 mm 2 mps 738 mmHg 96%
03:00 +12°C° 0 mm 2 mps 738 mmHg 96%
04:00 +12°C° 0 mm 2 mps 738 mmHg 95%
05:00 +12°C° 0.1 mm 3 mps 738 mmHg 93%
06:00 +12°C° 0.1 mm 3 mps 738 mmHg 92%
07:00 +13°C° 0.1 mm 3 mps 738 mmHg 90%
08:00 +14°C° 0.3 mm 3 mps 738 mmHg 87%
09:00 +16°C° 0.3 mm 3 mps 738 mmHg 85%
10:00 +16°C° 0.3 mm 3 mps 738 mmHg 83%
11:00 +17°C° 0.9 mm 3 mps 738 mmHg 79%
12:00 +18°C° 0.9 mm 4 mps 737 mmHg 75%
13:00 +19°C° 0.9 mm 4 mps 737 mmHg 72%
14:00 +19°C° 0.6 mm 4 mps 737 mmHg 72%
15:00 +19°C° 0.6 mm 4 mps 737 mmHg 72%
16:00 +19°C° 0.6 mm 4 mps 737 mmHg 72%
17:00 +19°C° 0.4 mm 3 mps 737 mmHg 77%
18:00 +18°C° 0.4 mm 2 mps 737 mmHg 81%
19:00 +17°C° 0.4 mm 2 mps 737 mmHg 86%
20:00 +16°C° 0.6 mm 2 mps 737 mmHg 89%
21:00 +15°C° 0.6 mm 2 mps 737 mmHg 91%
22:00 +14°C° 0.6 mm 2 mps 737 mmHg 94%
23:00 +14°C° 0.1 mm 2 mps 738 mmHg 95%

18 July, Saturday

Time Temperature Precipitation Wind Pressure Humidity
00:00 +13°C° 0.1 mm 2 mps 738 mmHg 96%
01:00 +13°C° 0.1 mm 2 mps 738 mmHg 97%
02:00 +12°C° 0 mm 3 mps 738 mmHg 97%
03:00 +13°C° 0 mm 3 mps 738 mmHg 97%
04:00 +13°C° 0 mm 3 mps 738 mmHg 97%
05:00 +13°C° 0.1 mm 4 mps 738 mmHg 96%
06:00 +14°C° 0.1 mm 4 mps 738 mmHg 95%
07:00 +14°C° 0.1 mm 4 mps 739 mmHg 94%
08:00 +14°C° 0.2 mm 4 mps 739 mmHg 93%
09:00 +14°C° 0.2 mm 4 mps 739 mmHg 92%
10:00 +15°C° 0.2 mm 4 mps 739 mmHg 92%
11:00 +17°C° 0.4 mm 4 mps 738 mmHg 86%
12:00 +17°C° 0.4 mm 5 mps 738 mmHg 81%
13:00 +20°C° 0.4 mm 5 mps 738 mmHg 75%
14:00 +20°C° 0.2 mm 5 mps 738 mmHg 72%
15:00 +21°C° 0.2 mm 5 mps 738 mmHg 69%
16:00 +21°C° 0.2 mm 5 mps 738 mmHg 66%
17:00 +20°C° 0 mm 4 mps 738 mmHg 71%
18:00 +19°C° 0 mm 3 mps 738 mmHg 75%
19:00 +19°C° 0 mm 2 mps 738 mmHg 79%
20:00 +18°C° 0 mm 2 mps 738 mmHg 82%
21:00 +16°C° 0 mm 2 mps 738 mmHg 84%
22:00 +15°C° 0 mm 2 mps 739 mmHg 87%
23:00 +15°C° 0 mm 2 mps 739 mmHg 89%
Show more